カタログに戻る

STARLINK-4788

運用中通信VLEO
NORAD 53863·PAYLOAD·🇺🇸 United States

打ち上げ Sep 19, 2022 から Cape Canaveral Space Force Station

Loading…

次のパス (今後24時間)

TLE

最新Source: CelesTrak SupGP

元期: Sep 14, 2026, 22:18 UTC

1 53863C 22114AX  26257.92965278 -.00024741  00000+0 -79522-3 0  2579
2 53863  53.1562 144.4984 0001440  92.0762 344.5704 15.31729995    17

AllMySatでSTARLINK-4788をリアルタイム追跡

Download on the App Store